TimeEST,TemperatureF,Dew PointF,Humidity,Sea Level PressureIn,VisibilityMPH,Wind Direction,Wind SpeedMPH,Gust SpeedMPH,PrecipitationIn,Events,Conditions,WindDirDegrees,DateUTC
12:54 AM,28.9,12.9,51,30.22,10.0,West,12.7,21.9,N/A,,Overcast,260,2012-11-30 05:54:00
1:54 AM,28.0,10.0,47,30.26,10.0,WNW,9.2,-,N/A,,Overcast,300,2012-11-30 06:54:00
2:54 AM,25.0,6.1,45,30.31,10.0,NW,4.6,-,N/A,,Scattered Clouds,310,2012-11-30 07:54:00
3:54 AM,21.0,9.0,60,30.34,10.0,North,4.6,-,N/A,,Clear,360,2012-11-30 08:54:00
4:54 AM,18.0,6.1,60,30.38,10.0,Calm,Calm,-,N/A,,Clear,0,2012-11-30 09:54:00
5:54 AM,12.9,6.1,74,30.42,10.0,Calm,Calm,-,N/A,,Clear,0,2012-11-30 10:54:00
6:54 AM,16.0,5.0,62,30.45,10.0,NNE,6.9,-,N/A,,Clear,30,2012-11-30 11:54:00
7:54 AM,17.1,3.9,56,30.48,10.0,North,6.9,-,N/A,,Clear,10,2012-11-30 12:54:00
8:54 AM,19.0,5.0,54,30.49,10.0,North,4.6,-,N/A,,Clear,10,2012-11-30 13:54:00
9:54 AM,21.9,3.0,44,30.51,10.0,Calm,Calm,-,0.00,,Clear,0,2012-11-30 14:54:00
10:54 AM,25.0,1.0,36,30.49,10.0,Variable,3.5,-,N/A,,Clear,0,2012-11-30 15:54:00
11:54 AM,25.0,-2.9,30,30.48,10.0,NE,6.9,-,N/A,,Clear,50,2012-11-30 16:54:00
12:54 PM,26.1,-5.1,26,30.48,10.0,East,4.6,-,N/A,,Clear,80,2012-11-30 17:54:00
1:54 PM,27.0,-4.0,26,30.48,10.0,NE,3.5,-,0.00,,Clear,40,2012-11-30 18:54:00
2:54 PM,26.1,-4.0,27,30.49,10.0,Calm,Calm,-,0.00,,Clear,0,2012-11-30 19:54:00
3:54 PM,24.1,-4.0,29,30.51,10.0,ENE,3.5,-,0.00,,Clear,70,2012-11-30 20:54:00
4:54 PM,21.9,-2.0,35,30.53,10.0,NNE,3.5,-,N/A,,Clear,20,2012-11-30 21:54:00
5:54 PM,19.9,-0.0,42,30.55,10.0,Variable,3.5,-,N/A,,Clear,0,2012-11-30 22:54:00
6:54 PM,19.0,1.0,46,30.58,10.0,Calm,Calm,-,0.00,,Clear,0,2012-11-30 23:54:00
8:54 PM,12.0,3.0,67,30.59,10.0,Calm,Calm,-,N/A,,Clear,0,2012-12-01 01:54:00
9:54 PM,14.0,6.1,71,30.59,10.0,WNW,3.5,-,N/A,,Overcast,290,2012-12-01 02:54:00
10:54 PM,16.0,6.1,65,30.61,10.0,Calm,Calm,-,N/A,,Overcast,0,2012-12-01 03:54:00